Date String (YYYY-MM-DD hh:mm:ss) UTC,Instrument flags,Ambient pressure (hPa),Sample flow (lpm),Bypass flow (lpm),Sample temperature (°C),Ambient temperature (°C),ASC tube jacket temperature (°C),LED temperature (°C),Box temperature (°C),Sample RH (%),Span deviation,Mass concentration (μg/m³),Mass concentration (μg/m³),Mass concentration (μg/m³)
DateTimeUTC,F1_M11,P_M11,Q1_M11,Q2_M11,T1_M11,T2_M11,T3_M11,T4_M11,T5_M11,U1_M11,ZSPAN_M11,X0_M11,X2_M11,X1_M11
2023-04-28 13:00:00,,0835.2,5.01,0.00,21.5,19.9,00.0,30.1,22.9,19.0,0000.0,0005.76,0001.96,0001.64
2023-04-28 13:01:00,,0834.9,5.00,0.00,21.5,19.9,00.0,30.1,22.9,19.1,0000.0,0005.29,0001.95,0001.65
2023-04-28 13:02:00,,0834.9,5.00,0.00,21.5,19.9,00.0,30.1,22.8,19.2,0000.0,0004.50,0001.93,0001.64
2023-04-28 13:03:00,,0834.8,5.01,0.00,21.4,19.9,00.0,30.1,22.8,19.3,0000.0,0004.45,0001.94,0001.64
2023-04-28 13:04:00,,0834.9,5.00,0.00,21.4,19.9,00.0,30.0,22.8,19.3,0000.0,0002.85,0001.93,0001.64
2023-04-28 13:05:00,,0835.3,5.00,0.00,21.5,20.8,00.0,30.0,23.2,19.3,0000.0,0002.79,0001.95,0001.65
2023-04-28 13:06:00,,0834.9,5.00,0.00,21.7,22.4,00.0,30.0,23.7,19.2,0000.0,0002.77,0001.93,0001.65
2023-04-28 13:07:00,,0834.9,4.99,0.00,21.9,23.5,00.0,30.0,24.1,18.9,0000.0,0002.97,0001.97,0001.66
2023-04-28 13:08:00,,0834.9,4.99,0.00,22.0,23.3,00.0,30.1,24.0,18.9,0000.0,0003.04,0001.98,0001.65
2023-04-28 13:09:00,,0835.1,5.00,0.00,22.0,22.8,00.0,30.2,23.8,18.9,0000.0,0003.00,0001.95,0001.65
2023-04-28 13:10:00,,0835.4,5.00,0.00,22.0,22.3,00.0,30.2,23.7,19.3,0000.0,0002.80,0001.92,0001.65
2023-04-28 13:11:00,,0835.0,5.01,0.00,22.0,21.9,00.0,30.2,23.6,19.2,0000.0,0002.83,0001.94,0001.66
2023-04-28 13:12:00,,0834.9,5.00,0.00,22.0,21.5,00.0,30.3,23.5,18.9,0000.0,0002.98,0002.00,0001.67
2023-04-28 13:13:00,,0835.0,5.00,0.00,21.9,21.2,00.0,30.3,23.5,19.0,0000.0,0003.12,0002.05,0001.68
2023-04-28 13:14:00,,0835.0,5.00,0.00,21.9,20.9,00.0,30.3,23.3,19.0,0000.0,0003.09,0002.04,0001.68
2023-04-28 13:15:00,,0835.0,4.99,0.00,21.9,20.7,00.0,30.3,23.3,19.0,0000.0,0003.02,0002.01,0001.67
2023-04-28 13:16:00,,0835.0,5.00,0.00,21.8,20.5,00.0,30.3,23.2,18.8,0000.0,0003.07,0001.99,0001.67
2023-04-28 13:17:00,,0834.9,4.99,0.00,21.8,20.4,00.0,30.3,23.2,18.9,0000.0,0003.11,0002.00,0001.66
2023-04-28 13:18:00,,0835.0,5.00,0.00,21.8,20.3,00.0,30.2,23.2,19.1,0000.0,0002.92,0001.96,0001.65
2023-04-28 13:19:00,,0835.0,5.01,0.00,21.7,20.3,00.0,30.2,23.2,19.1,0000.0,0002.92,0001.98,0001.66
2023-04-28 13:20:00,,0835.0,5.01,0.00,21.7,20.2,00.0,30.2,23.1,19.4,0000.0,0002.94,0002.01,0001.65
2023-04-28 13:21:00,,0835.0,5.00,0.00,21.7,20.2,00.0,30.2,23.1,19.8,0000.0,0002.95,0002.01,0001.63
2023-04-28 13:22:00,,0835.1,4.99,0.00,21.7,20.2,00.0,30.2,23.1,19.4,0000.0,0002.88,0001.98,0001.62
2023-04-28 13:23:00,,0835.0,4.99,0.00,21.7,20.1,00.0,30.2,23.1,19.5,0000.0,0002.81,0001.94,0001.60
2023-04-28 13:24:00,,0835.1,5.00,0.00,21.7,20.1,00.0,30.2,23.1,19.4,0000.0,0002.80,0001.92,0001.59
2023-04-28 13:25:00,,0835.1,5.00,0.00,21.7,20.1,00.0,30.2,23.1,19.2,0000.0,0002.89,0001.92,0001.57
2023-04-28 13:26:00,,0835.1,5.01,0.00,21.7,20.1,00.0,30.2,23.2,20.0,0000.0,0002.85,0001.90,0001.56
2023-04-28 13:27:00,,0835.2,5.00,0.00,21.7,20.2,00.0,30.2,23.2,20.0,0000.0,0002.78,0001.91,0001.56
2023-04-28 13:28:00,,0835.2,4.99,0.00,21.7,20.2,00.0,30.2,23.2,19.5,0000.0,0002.77,0001.91,0001.56
2023-04-28 13:29:00,,0835.3,5.00,0.00,21.7,20.3,00.0,30.2,23.2,19.1,0000.0,0002.69,0001.90,0001.56
2023-04-28 13:30:00,,0835.3,5.00,0.00,21.7,20.3,00.0,30.2,23.2,19.3,0000.0,0002.67,0001.89,0001.56
2023-04-28 13:31:00,,0835.3,4.99,0.00,21.7,20.3,00.0,30.2,23.2,19.5,0000.0,0002.68,0001.89,0001.55
2023-04-28 13:32:00,,0835.3,5.00,0.00,21.7,20.4,00.0,30.1,23.2,19.3,0000.0,0002.73,0001.91,0001.57
2023-04-28 13:33:00,,0835.2,5.00,0.00,21.7,20.4,00.0,30.1,23.2,19.2,0000.0,0002.77,0001.94,0001.58
2023-04-28 13:34:00,,0835.2,5.00,0.00,21.7,20.3,00.0,30.1,23.2,19.3,0000.0,0002.76,0001.95,0001.60
2023-04-28 13:35:00,,0835.2,4.99,0.00,21.7,20.3,00.0,30.1,23.2,19.1,0000.0,0002.67,0001.96,0001.61
2023-04-28 13:36:00,,0835.2,4.99,0.00,21.7,20.4,00.0,30.1,23.2,19.0,0000.0,0002.54,0001.95,0001.63
2023-04-28 13:37:00,,0835.2,4.99,0.00,21.7,20.4,00.0,30.2,23.2,19.3,0000.0,0002.57,0001.96,0001.65
2023-04-28 13:38:00,,0835.2,5.00,0.00,21.8,20.4,00.0,30.2,23.2,19.2,0000.0,0002.71,0001.98,0001.67
2023-04-28 13:39:00,,0835.3,4.99,0.00,21.8,20.5,00.0,30.2,23.3,19.3,0000.0,0002.76,0001.99,0001.67
2023-04-28 13:40:00,,0835.3,5.00,0.00,21.8,20.6,00.0,30.2,23.2,19.2,0000.0,0002.75,0001.98,0001.68
2023-04-28 13:41:00,,0835.3,5.01,0.00,21.8,20.7,00.0,30.2,23.3,19.0,0000.0,0002.85,0001.98,0001.67
2023-04-28 13:42:00,,0835.3,5.00,0.00,21.9,20.7,00.0,30.2,23.3,18.8,0000.0,0002.86,0001.98,0001.67
2023-04-28 13:43:00,,0835.3,5.01,0.00,21.9,20.8,00.0,30.2,23.4,18.8,0000.0,0002.77,0001.96,0001.68
2023-04-28 13:44:00,,0835.4,5.00,0.00,21.9,20.9,00.0,30.2,23.4,18.2,0000.0,0002.74,0001.94,0001.67
2023-04-28 13:45:00,,0835.3,4.98,0.00,21.9,20.9,00.0,30.2,23.4,18.1,0000.0,0002.70,0001.92,0001.67
2023-04-28 13:46:00,,0835.3,5.00,0.00,22.0,20.9,00.0,30.2,23.4,17.9,0000.0,0002.64,0001.88,0001.65
2023-04-28 13:47:00,,0835.3,5.00,0.00,22.0,21.0,00.0,30.2,23.5,18.7,0000.0,0002.62,0001.87,0001.65
2023-04-28 13:48:00,,0835.5,5.01,0.00,22.0,21.0,00.0,30.3,23.5,20.0,0000.0,0002.64,0001.88,0001.66
2023-04-28 13:49:00,,0835.4,4.99,0.00,22.0,20.9,00.0,30.3,23.5,20.1,0000.0,0002.54,0001.88,0001.66
2023-04-28 13:50:00,,0835.4,5.00,0.00,22.0,20.9,00.0,30.3,23.5,19.1,0000.0,0002.51,0001.91,0001.67
2023-04-28 13:51:00,,0835.4,5.01,0.00,22.0,20.8,00.0,30.3,23.5,18.7,0000.0,0002.61,0001.95,0001.69
2023-04-28 13:52:00,,0835.5,5.00,0.00,22.0,20.7,00.0,30.3,23.4,18.7,0000.0,0002.56,0001.96,0001.70
2023-04-28 13:53:00,,0835.5,4.99,0.00,21.9,20.6,00.0,30.3,23.4,18.5,0000.0,0002.53,0001.98,0001.72
2023-04-28 13:54:00,,0835.5,5.00,0.00,21.9,20.6,00.0,30.3,23.3,19.3,0000.0,0002.66,0002.05,0001.74
2023-04-28 13:55:00,,0835.5,5.00,0.00,21.9,20.5,00.0,30.3,23.3,19.2,0000.0,0002.79,0002.11,0001.77
2023-04-28 13:56:00,,0835.5,5.01,0.00,21.9,20.4,00.0,30.3,23.3,19.3,0000.0,0002.92,0002.17,0001.81
2023-04-28 13:57:00,,0835.5,5.01,0.00,21.9,20.4,00.0,30.3,23.3,19.4,0000.0,0002.99,0002.23,0001.86
2023-04-28 13:58:00,,0835.5,5.00,0.00,21.9,20.4,00.0,30.3,23.3,20.1,0000.0,0003.19,0002.38,0001.98
2023-04-28 13:59:00,,0835.5,5.00,0.00,21.8,20.4,00.0,30.3,23.3,20.3,0000.0,0003.49,0002.54,0002.08
